Meteo Giornale » Osservazioni meteo Francia » Saint-Yan

ore: 12:00 - Osservazioni Meteo Saint-Yan
Lat. 46° 25' N Lon. 4° 1' E Alt. 242 metri s.l.m.

molto_nuvoloso Europe/Paris

19 °C

Molto Nuvoloso

Temp. 24 Ore

11 °C

20 °C

Ovest

7.4 Km/h

Dew point 11 °C

Umidità 59 %

Visibilità  10 Km

Il sole sorge alle ore 05:50

Il sole tramonta alle ore 21:42

Data e Ora Cielo e Fenomeni T °C DP °C Um. % Pres. hPa Vis. km Vento km/h
Oggi h: 12:00 molto_nuvoloso Molto Nuvoloso 19 11 59 1021 10 O 7.4
Oggi h: 11:30 poco_nuvoloso Poco Nuvoloso 20 11 56 1021 10 N/NO 11.1
Oggi h: 11:00 poco_nuvoloso Poco Nuvoloso 19 12 63 1022 10 N 9.3
Oggi h: 10:30 poco_nuvoloso Poco Nuvoloso 18 12 67 1022 10 O/NO 9.3
Oggi h: 10:00 sereno Sereno 18 12 67 1022 10 O/NO 11.1
Oggi h: 09:30 sereno Sereno 17 12 72 1022 10 O/NO 11.1
Oggi h: 09:00 sereno Sereno 16 13 82 1022 10 N 5.5
Oggi h: 08:30 sereno Sereno 14 13 93 1022 10 N 3.7
Oggi h: 08:00 sereno Sereno 13 13 100 1022 10 N 1.8
Oggi h: 07:30 sereno Sereno 13 12 93 1022 10 N 3.7
Oggi h: 06:30 sereno Sereno 12 12 100 1022 8 N 5.5
Oggi h: 06:00 sereno Sereno 12 12 100 1022 8 N 3.7
Oggi h: 05:30 sereno Sereno 12 12 100 1022 8 N 5.5
Oggi h: 05:00 sereno Sereno 12 11 93 1022 7 N 5.5
Oggi h: 04:30 nebbia Nebbia 11 10 93 1022 0.4 N 3.7
Oggi h: 04:00 sereno Sereno 11 10 93 1022 7 N 5.5
Oggi h: 03:30 sereno Sereno 12 11 93 1022 10 S 7.4
Oggi h: 03:00 sereno Sereno 12 12 100 1022 10 S 7.4
Oggi h: 02:30 sereno Sereno 13 12 93 1023 10 N 5.5
Oggi h: 02:00 sereno Sereno 13 12 93 1023 10 S 7.4
Oggi h: 01:30 sereno Sereno 13 12 93 1023 10 N 5.5
Oggi h: 01:00 sereno Sereno 14 13 93 1023 10 N 5.5
Oggi h: 00:30 molto_nuvoloso Molto Nuvoloso 13 12 93 1023 10 N 3.7
Oggi h: 00:00 sereno Sereno 14 12 87 1023 10 N 1.8
Ieri h: 23:30 sereno Sereno 15 13 87 1023 10 N 0
Ieri h: 23:00 sereno Sereno 15 13 87 1023 10 N 3.7
Ieri h: 22:30 sereno Sereno 15 13 87 1023 10 N 1.8
Ieri h: 22:00 sereno Sereno 15 13 87 1023 10 N 1.8
Ieri h: 21:30 sereno Sereno 15 13 87 1023 10 N 3.7
Ieri h: 21:00 sereno Sereno 16 12 77 1023 10 N 5.5
Ieri h: 20:30 sereno Sereno 16 12 77 1023 10 O/NO 11.1
Ieri h: 20:00 sereno Sereno 16 12 77 1022 10 O/NO 13
Ieri h: 19:30 sereno Sereno 16 12 77 1022 10 O/NO 7.4
Ieri h: 19:00 sereno Sereno 16 12 77 1022 10 NO 14.8
Ieri h: 18:30 coperto Coperto 16 12 77 1022 10 O/NO 16.7
Ieri h: 18:00 coperto Coperto 17 13 77 1022 10 NO 18.5
Ieri h: 17:30 coperto Coperto 17 13 77 1022 10 O/NO 16.7
Ieri h: 17:00 molto_nuvoloso Molto Nuvoloso 17 13 77 1022 10 O/NO 16.7
Ieri h: 16:30 coperto Coperto 17 14 82 1022 10 NO 14.8
Ieri h: 16:00 molto_nuvoloso Molto Nuvoloso 16 14 87 1022 10 NO 16.7
Ieri h: 15:30 coperto Coperto 17 14 82 1021 10 O 11.1
Ieri h: 15:00 molto_nuvoloso Molto Nuvoloso 17 14 82 1021 10 O/NO 11.1
Ieri h: 14:30 molto_nuvoloso Molto Nuvoloso 16 14 87 1021 10 O/NO 9.3
Ieri h: 14:00 coperto Coperto 16 14 87 1021 10 O/NO 16.7
Ieri h: 13:30 molto_nuvoloso Molto Nuvoloso 16 14 87 1021 10 NO 18.5
Ieri h: 13:00 coperto_pioggia Pioggia Debole Foschia 15 14 93 1021 4 NO 16.7